Regional Weather Roundup
Issued by NWS

Home | Current Version | Previous Version | Text Only | Print | Product List | Glossary On
Versions: 1 2 3 4 5 6 7 8 9 10 11 12 13 14 15 16 17 18 19 20 21 22 23 24 25 26 27 28 29 30 31 32 33 34 35 36 37 38 39 40 41 42 43 44 45 46 47 48 49 50
000
ASUS45 KBOU 270907
RWRCO

WEATHER ROUNDUP FOR COLORADO
NATIONAL WEATHER SERVICE DENVER/BOULDER CO
300 AM MDT SUN JUL 27 2014

NOTE: "FAIR" INDICATES FEW OR NO CLOUDS BELOW 12000 FEET WITH NO
SIGNIFICANT WEATHER AND/OR OBSTRUCTIONS TO VISIBILITY.

COZ001>005-013-030-031-271000-
...NORTHWEST COLORADO...

CITY           SKY/WX    TMP DP  RH WIND       PRES   REMARKS
CRAIG          PTCLDY    49  49 100 CALM      30.33R
HAYDEN         PTCLDY    55  46  71 E7        30.35S
MEEKER         MOCLDY    57  50  77 E6        30.34R
MOUNT WERNER   NOT AVBL
STEAMBOAT SPGS PTCLDY    50  47  89 CALM      30.38S
WALDEN         CLEAR     45  37  76 SE7       30.48R
$$

COZ006>008-011-271000-
...WEST CENTRAL VALLEYS...

CITY           SKY/WX    TMP DP  RH WIND       PRES   REMARKS
GRAND JUNCTION PTCLDY    68  52  56 CALM      30.18S
MONTROSE       CLEAR     66  49  54 CALM      30.27S
EAGLE          PTCLDY    54  54 100 CALM      30.43S
RIFLE          CLOUDY    62  55  77 CALM      30.28S
DELTA          CLEAR     68  48  48 CALM      30.22S
NUCLA          CLEAR     70  45  40 E10       30.28S
$$

COZ017>023-064>068-271000-
...SOUTHWEST COLORADO...

CITY           SKY/WX    TMP DP  RH WIND       PRES   REMARKS
DURANGO        MOCLDY    69  45  41 NE5       30.33R
CORTEZ         CLEAR     61  47  59 NE5       30.24R
PAGOSA SPRINGS MOCLDY    61  46  58 CALM      30.42F
TELLURIDE      CLEAR     59  46  63 SE8       30.51S
WOLF CREEK PAS NOT AVBL
$$

COZ009-010-012-014-032>034-037-058>063-271000-
...CENTRAL COLORADO...

CITY           SKY/WX    TMP DP  RH WIND       PRES   REMARKS
ASPEN          PTCLDY    51  42  71 S6        30.44F
BUENA VISTA    PTCLDY    49  46  90 W6        30.49F
COPPER MTN     CLEAR     54  32  43 N3        30.76F
BERTHOUD PASS  FAIR      46  32  57 N3        30.81F
COTTONWOOD PAS PTCLDY    55  43  62 W7        30.60F
GUNNISON       CLEAR     55  46  71 N6        30.48S
KREMMLING      CLEAR     50  45  81 CALM      30.48S
LEADVILLE      PTCLDY    41  39  93 E5        30.60F
MONARCH PASS   CLEAR     50  37  62 CALM      30.85S
SALIDA         PTCLDY   N/A N/A N/A W7        30.53F
SUNLIGHT       MOCLDY    59  36  41 CALM      30.66F
WILKERSON PASS NOT AVBL
$$

COZ069>075-271000-
...SAN LUIS VALLEY/SANGRE DE CRISTO MOUNTAINS...

CITY           SKY/WX    TMP DP  RH WIND       PRES   REMARKS
ALAMOSA        PTCLDY    57  51  80 NE3       30.42F
LA VETA PASS   NOT AVBL
SAGUACHE       CLEAR     54  48  82 NW8       30.45F
$$

COZ035-036-038>040-271000-
...NORTHERN COLORADO FRONT RANGE...

CITY           SKY/WX    TMP DP  RH WIND       PRES   REMARKS
DENVER INTL AP PTCLDY    62  51  67 SE7       30.25R
DMNS CITY PARK   N/A     65  53  65 NW5G12    30.25R
AURORA         PTCLDY    62  52  69 S8        30.27R
FRONT RANGE AP NOT AVBL
ERIE MUNI ARPT CLEAR     61  56  82 CALM      30.25R
BOULDER MUN AP CLEAR     64  50  59 NW3       30.25R
CENTENNIAL     PTCLDY    62  51  67 S8        30.28R
BROOMFIELD     CLEAR     64  54  68 N16       30.26S
FORT COLLINS   CLEAR     61  54  77 N9        30.26S
LONGMONT       CLEAR     67  54  61 N6        30.25S
$$

COZ041-046-047-076>085-087-088-271000-
...PIKES PEAK/PALMER DIVIDE AND SOUTHERN FOOTHILLS...

CITY           SKY/WX    TMP DP  RH WIND       PRES   REMARKS
COLO. SPRINGS  PTCLDY    64  51  62 CALM      30.32S
A. F. ACADEMY  CLEAR     56  53  92 NW7       30.34S
ELLICOTT       CLEAR     61  52  72 E10       30.32R
FALCON         CLEAR     60  49  68 W3        30.37S
FORT CARSON    PTCLDY    62  54  76 NW2       30.28F
LIMON          MOCLDY    66  57  72 SE6       30.28R
MONUMENT HILL  CLEAR     55  50  82 S8        30.36S
TRINIDAD       CLOUDY    66  56  70 W6        30.29F
$$

COZ042>045-048>051-090-091-271000-
...NORTHEAST COLORADO...

CITY           SKY/WX    TMP DP  RH WIND       PRES   REMARKS
GREELEY ARPT   CLEAR     61  54  77 N5        30.23R
AKRON          PTCLDY    65  62  90 E7        30.23F
BURLINGTON     CLOUDY    67  62  84 NE5       30.22R
WRAY             N/A     65  62  89 CALM      30.18S
STERLING       PTCLDY    70  64  83 E3        30.20S
HOLYOKE        CLEAR     63  61  94 N3        30.20R
FORT MORGAN    PTCLDY    63  60  93 E8        30.23R
$$

COZ086-089-092>099-271000-
...SOUTHEAST COLORADO...

CITY           SKY/WX    TMP DP  RH WIND       PRES   REMARKS
PUEBLO         PTCLDY    66  60  81 CALM      30.21F
LA JUNTA       CLOUDY    69  60  73 NE6       30.19F
LAMAR          CLOUDY    69  65  86 NE6       30.14F
SPRINGFIELD      N/A     67  61  81 NE5       30.15F
$$



USA.gov is the U.S. government's official web portal to all federal, state and local government web resources and services.